#timestamp,LO_Frequency,Hit,StdDev 
1599861795.6,286047015.8,P
1599861815.5,286047018.5,P
1599861835.3,286047018.7,P
1599861855.2,286047017.8,Y
1599861875.0,286047002.6,P
1599861875.9,286047002.6,N
1599861895.7,286046999.8,N
1599861915.6,286047002.6,N
1599861935.4,286046999.7,N
1599861955.3,286047002.2,N
1599861975.1,286047001.9,N
1599861976.0,286047001.9,N
1599861995.8,286047002.2,N
1599862015.7,286047002.1,N
1599862035.5,286047001.5,N
1599862055.3,286047001.5,N
1599862075.2,286047003.8,N
1599862095.0,286047003.3,N
1599862095.9,286047003.3,N
1599862115.8,286047003.5,N
1599862135.6,286047003.1,N
1599862155.4,286047006.0,N
1599862175.3,286047003.0,N
1599862195.1,286047003.3,N
1599862215.8,286047003.3,N
1599862235.7,286047005.7,N
1599862255.5,286047006.8,N
1599862275.4,286047006.5,N
1599862295.2,286047007.1,N
1599862315.0,286047007.0,N
1599862315.9,286047007.0,N
1599862335.8,286047006.2,N
1599862355.6,286047006.3,N
1599862375.4,286047008.4,N
1599862395.3,286047009.1,Y
1599862415.1,286047003.5,P
1599862435.9,286047005.7,P
1599862455.7,286047005.6,P
1599862475.5,286047004.8,Y
1599862495.4,286046998.2,P
1599862515.2,286047000.3,N
1599862535.1,286047002.5,N
1599862536.0,286047002.5,N
1599862555.8,286047002.7,N
1599862575.6,286047001.9,N
1599862595.5,286047004.3,N
1599862615.3,286047003.6,N
1599862635.1,286047003.2,N
1599862655.9,286047004.2,N
1599862675.7,286047005.4,N
1599862695.6,286047003.0,N
1599862715.4,286047005.7,Y
1599862735.2,286047002.6,P
1599862755.1,286047002.2,P
1599862756.0,286047002.2,P
1599862775.8,286046999.8,N
1599862795.6,286047002.6,N
1599862815.5,286047002.1,N
1599862835.3,286047001.5,N
1599862855.2,286047004.0,Y
1599862875.9,286046999.7,P
1599862895.7,286047001.9,N
1599862915.6,286047004.0,P
1599862935.4,286047003.4,N
1599862955.3,286047004.3,N
1599862975.1,286047005.6,Y
1599862976.0,286047005.6,P
1599862995.8,286047002.3,N
1599863015.7,286047000.2,N
1599863035.5,286047002.7,N
1599863055.3,286047002.2,N
1599863075.2,286047002.1,N
1599863095.0,286047002.1,N
1599863095.9,286047002.1,N
1599863115.8,286047002.1,N
1599863135.6,286047004.3,Y
1599863155.4,286046999.7,P
1599863175.3,286047001.8,N
1599863195.1,286047002.0,N
1599863215.9,286047002.5,N
1599863235.7,286047004.3,Y
1599863255.5,286047000.6,P
1599863275.4,286046999.9,N
1599863295.2,286047002.4,P
1599863315.1,286047002.2,N
1599863316.0,286047002.2,N
1599863335.8,286047004.0,Y
1599863355.6,286047002.7,P
1599863375.5,286047002.0,P
1599863395.3,286047000.3,N
1599863415.1,286047002.1,N
1599863435.9,286047002.8,Y
1599863455.7,286047000.2,P
1599863475.6,286047000.1,N
1599863495.4,286047000.8,N
1599863515.2,286047000.2,N
1599863535.1,286047000.9,N
1599863536.0,286047000.9,N
1599863555.8,286047000.3,N
1599863575.7,286047002.7,Y
1599863595.5,286047000.3,P
1599863615.3,286046999.7,N
1599863635.2,286046999.9,N
1599863655.0,286047002.4,Y
1599863655.9,286047002.4,P
1599863675.7,286046999.7,N
1599863695.6,286046999.9,N
1599863715.4,286047000.7,N
1599863735.3,286047000.2,N
1599863755.1,286047000.1,N
1599863756.0,286047000.1,N
1599863775.8,286047002.8,Y
1599863795.7,286047002.4,P
1599863815.5,286047002.7,N
1599863835.4,286047001.9,N
1599863855.2,286047001.9,N
1599863875.0,286047004.4,Y
1599863875.9,286047004.4,P
1599863895.8,286047000.5,N
1599863915.6,286047002.7,N
1599863935.4,286047000.4,N
1599863955.3,286046999.7,N
1599863975.1,286047000.1,N
1599863995.9,286047000.0,N
1599864015.7,286047002.7,N
1599864035.5,286047002.3,N
1599864055.4,286047002.5,N
1599864075.2,286047002.0,N
1599864095.0,286047002.2,N
1599864095.9,286047002.2,N
1599864115.8,286047001.3,N
1599864135.6,286047001.4,N
1599864185.5,286047002.2,E
1599864195.4,286046999.8,N
1599864215.3,286047000.6,P
1599864235.1,286047000.6,N
1599864236.0,286047000.6,N
1599864255.8,286046998.1,Y
1599864275.7,286047001.2,P
1599864295.5,286046998.6,P
1599864315.3,286046998.3,N
1599864335.2,286046998.7,N
1599864355.0,286046998.6,N
1599864355.9,286046998.6,N
1599864375.8,286046998.6,N
1599864395.6,286047001.0,N
1599864415.4,286047002.3,N
1599864435.3,286047000.0,N
1599864455.1,286047002.5,N
1599864475.8,286047002.4,N
1599864495